TimeEST,TemperatureF,Dew PointF,Humidity,Sea Level PressureIn,VisibilityMPH,Wind Direction,Wind SpeedMPH,Gust SpeedMPH,PrecipitationIn,Events,Conditions,WindDirDegrees,DateUTC
12:56 AM,36.0,30.0,79,30.26,10.0,NNW,6.9,-,N/A,,Clear,340,2013-11-28 05:56:00
1:56 AM,36.0,25.0,64,30.27,10.0,North,8.1,-,N/A,,Clear,350,2013-11-28 06:56:00
2:56 AM,34.0,25.0,70,30.29,10.0,North,8.1,-,N/A,,Clear,360,2013-11-28 07:56:00
3:56 AM,34.0,27.0,75,30.30,10.0,North,8.1,-,N/A,,Clear,360,2013-11-28 08:56:00
4:56 AM,33.1,25.0,72,30.31,10.0,NNE,9.2,-,N/A,,Clear,20,2013-11-28 09:56:00
5:56 AM,32.0,25.0,75,30.34,10.0,North,8.1,-,N/A,,Clear,10,2013-11-28 10:56:00
6:56 AM,30.9,24.1,76,30.37,10.0,NNE,8.1,-,N/A,,Clear,30,2013-11-28 11:56:00
7:56 AM,33.1,25.0,72,30.40,10.0,NE,9.2,-,N/A,,Clear,50,2013-11-28 12:56:00
8:56 AM,37.0,23.0,57,30.43,10.0,NE,15.0,-,N/A,,Clear,40,2013-11-28 13:56:00
9:56 AM,39.9,19.9,45,30.45,10.0,ENE,8.1,-,N/A,,Clear,60,2013-11-28 14:56:00
10:56 AM,42.1,21.0,43,30.45,10.0,North,8.1,-,N/A,,Clear,360,2013-11-28 15:56:00
11:56 AM,45.0,21.9,40,30.43,10.0,North,9.2,-,N/A,,Clear,350,2013-11-28 16:56:00
12:56 PM,46.9,21.9,37,30.42,10.0,Variable,3.5,-,N/A,,Clear,0,2013-11-28 17:56:00
1:56 PM,48.0,24.1,39,30.41,10.0,Calm,Calm,-,N/A,,Clear,0,2013-11-28 18:56:00
2:56 PM,48.9,24.1,38,30.41,10.0,Calm,Calm,-,N/A,,Clear,0,2013-11-28 19:56:00
3:56 PM,48.9,24.1,38,30.42,10.0,Calm,Calm,-,N/A,,Clear,0,2013-11-28 20:56:00
4:56 PM,48.0,23.0,37,30.43,10.0,Calm,Calm,-,N/A,,Clear,0,2013-11-28 21:56:00
5:56 PM,42.1,30.9,65,30.46,10.0,South,4.6,-,N/A,,Clear,170,2013-11-28 22:56:00
6:56 PM,39.9,30.9,70,30.48,10.0,Calm,Calm,-,N/A,,Clear,0,2013-11-28 23:56:00
7:56 PM,39.9,34.0,79,30.48,10.0,Calm,Calm,-,N/A,,Clear,0,2013-11-29 00:56:00
8:56 PM,37.0,32.0,82,30.49,10.0,Calm,Calm,-,N/A,,Clear,0,2013-11-29 01:56:00
9:56 PM,36.0,33.1,89,30.50,10.0,Calm,Calm,-,N/A,,Clear,0,2013-11-29 02:56:00
10:56 PM,35.1,32.0,89,30.50,10.0,NNW,3.5,-,N/A,,Clear,340,2013-11-29 03:56:00
11:56 PM,34.0,32.0,92,30.49,6.0,North,3.5,-,N/A,,Clear,350,2013-11-29 04:56:00